Location: Spruce Knob
(38.6995°N, 79.5330°W)
Time: 14:35:42
(UTC-04:00)

BUGSAT 1 - Pass Details

Date: 23 March 2023
Orbit: 549 x 588 km, 98.1° (Epoch: 27 May)

Event Time Altitude Azimuth Distance (km) Brightness Sun altitude
Rises 19:56:52 0° 192° (SSW) 2,807 ? -5.5°
Reaches altitude 10° 19:59:16 10° 204° (SSW) 1,911 ? -6.0°
Maximum altitude 20:02:49 27° 263° (W) 1,138 ? -6.7°
Drops below altitude 10° 20:06:23 10° 322° (NW) 1,917 ? -7.3°
Sets 20:08:49 0° 335° (NNW) 2,817 ? -7.8°
